Fort Campbell, TN

1:02 AM CST on February 14, 2016 (GMT -0600)
Outlaw

Weather History for KCKV - October, 2014

Change the Weather History Date:

Tuesday, October 28, 2014

  Actual Average Record
Temperature  
Mean Temperature 61 °F -  
Max Temperature 70 °F - 86 °F (1963)
Min Temperature 51 °F - 21 °F (1976)
Degree Days  
Heating Degree Days 4    
Month to date heating degree days 152  
Since 1 July heating degree days 178  
Cooling Degree Days 0    
Month to date cooling degree days 41  
Growing Degree Days 10 (Base 50)    
Moisture  
Dew Point 57 °F    
Average Humidity 83    
Maximum Humidity 96    
Minimum Humidity 70    
Precipitation  
Precipitation 0.19 in - 0.77 in (1951)
Month to date precipitation 6.24  
Sea Level Pressure  
Sea Level Pressure 30.03 in    
Wind  
Wind Speed 7 mph (WSW)    
Max Wind Speed 17 mph    
Max Gust Speed 23 mph    
Visibility 9 miles    
Events Rain    
T = Trace of Precipitation, MM = Missing Value Source: NWS Daily Summary

Daily Weather History Graph

Daily Weather History Graph

Search for Another Location

Airport or City:

Trip Planner

Search our weather history database for the weather conditions in past years. The results will help you decide how hot, cold, wet, or windy it might be!

Date:

Astronomy

Oct. 28, 2014 Rise Set
Actual Time 7:09 AM CDT 5:57 PM CDT
Civil Twilight 6:42 AM CDT 6:23 PM CDT
Nautical Twilight 6:12 AM CDT 6:53 PM CDT
Astronomical Twilight 5:42 AM CDT 7:24 PM CDT
Moon 11:35 AM CDT (10/28) 10:05 PM CDT (10/28)
Length of Visible Light 11h 41m
Length of Day
10h 47m
Waxing Crescent, 24% of the Moon is Illuminated
Oct 28
Waxing Crescent
Oct 30
First Quarter
Nov 6
Full
Nov 14
Last Quarter
Nov 22
New

Hourly Weather History & Observations

Time (CDT) Temp. Dew Point Humidity Pressure Visibility Wind Dir Wind Speed Gust Speed Precip Events Conditions
12:52 AM 69.1 °F 59.0 °F 70% 29.94 in 10.0 mi SW 6.9 mph - N/A   Clear
1:52 AM 66.9 °F 59.0 °F 76% 29.95 in 10.0 mi SSW 5.8 mph - N/A   Clear
2:52 AM 64.9 °F 59.0 °F 81% 29.96 in 10.0 mi SSW 6.9 mph - N/A   Clear
3:52 AM 64.9 °F 60.1 °F 84% 29.94 in 10.0 mi South 6.9 mph - N/A   Partly Cloudy
4:52 AM 66.0 °F 60.1 °F 81% 29.94 in 10.0 mi SSW 8.1 mph - N/A   Scattered Clouds
5:52 AM 66.0 °F 60.1 °F 81% 29.95 in 10.0 mi SSW 9.2 mph - N/A   Clear
6:52 AM 66.0 °F 60.1 °F 81% 29.96 in 10.0 mi SSW 9.2 mph - N/A   Partly Cloudy
7:52 AM 66.0 °F 61.0 °F 84% 29.97 in 10.0 mi SSW 8.1 mph - N/A   Mostly Cloudy
8:52 AM 68.0 °F 62.1 °F 81% 30.00 in 10.0 mi SSW 11.5 mph - N/A   Partly Cloudy
9:40 AM 69.1 °F 62.1 °F 78% 30.02 in 10.0 mi SSW 10.4 mph 20.7 mph N/A   Overcast
9:52 AM 69.1 °F 62.1 °F 78% 30.01 in 10.0 mi SSW 10.4 mph - N/A   Overcast
10:44 AM 68.0 °F 63.0 °F 84% 30.04 in 9.0 mi WSW 8.1 mph - 0.00 in Rain Light Rain
10:52 AM 68.0 °F 63.0 °F 84% 30.03 in 9.0 mi SW 8.1 mph - 0.00 in Rain Light Rain
11:17 AM 68.0 °F 63.0 °F 84% 30.05 in 10.0 mi SW 9.2 mph - 0.00 in   Overcast
11:52 AM 69.1 °F 63.0 °F 81% 30.02 in 10.0 mi SSW 9.2 mph - 0.00 in   Overcast
12:40 PM 70.0 °F 63.0 °F 78% 30.02 in 10.0 mi SW 9.2 mph - 0.00 in   Overcast
12:52 PM 70.0 °F 63.0 °F 78% 30.01 in 10.0 mi SW 10.4 mph - 0.00 in   Overcast
1:11 PM 61.0 °F 57.0 °F 87% 30.02 in 4.0 mi North 10.4 mph 20.7 mph 0.02 in Rain Light Rain
1:23 PM 60.1 °F 57.0 °F 90% 30.03 in 10.0 mi North 11.5 mph - 0.02 in Rain Light Rain
1:52 PM 60.1 °F 55.9 °F 86% 30.03 in 10.0 mi NNW 11.5 mph - 0.03 in Rain Light Rain
2:52 PM 59.0 °F 55.0 °F 87% 30.04 in 5.0 mi NNW 8.1 mph - 0.01 in Rain Light Rain
3:52 PM 60.1 °F 55.9 °F 86% 30.04 in 10.0 mi NNW 3.5 mph - 0.01 in Rain Light Rain
4:37 PM 55.9 °F 53.1 °F 90% 30.06 in 2.5 mi NNW 10.4 mph - 0.04 in Rain Rain
4:47 PM 55.4 °F 53.6 °F 94% 30.07 in 4.0 mi NNW 4.6 mph - 0.05 in Rain Light Rain
4:52 PM 55.9 °F 53.1 °F 90% 30.06 in 7.0 mi NW 6.9 mph - 0.05 in Rain Light Rain
5:52 PM 54.0 °F 46.9 °F 77% 30.06 in 10.0 mi NNW 12.7 mph - 0.00 in   Overcast
6:52 PM 51.1 °F 48.0 °F 89% 30.09 in 10.0 mi NNW 8.1 mph - 0.02 in Rain Light Rain
7:35 PM 51.1 °F 48.0 °F 89% 30.09 in 10.0 mi NNE 3.5 mph - 0.00 in   Overcast
7:52 PM 51.1 °F 48.0 °F 89% 30.09 in 5.0 mi NNE 3.5 mph - 0.02 in Rain Rain
8:52 PM 51.1 °F 48.0 °F 89% 30.08 in 10.0 mi SE 4.6 mph - 0.02 in   Overcast
9:52 PM 51.1 °F 48.0 °F 89% 30.09 in 10.0 mi Calm Calm - N/A   Overcast
10:52 PM 52.0 °F 48.9 °F 89% 30.12 in 10.0 mi Calm Calm - 0.00 in   Overcast
11:52 PM 52.0 °F 50.0 °F 93% 30.11 in 10.0 mi SSE 3.5 mph - 0.00 in   Overcast